STARLINK-2631

operational
NORAD ID: 48366 Int'l Des: 2021-038 Owner: SPXS Country: US Constellation: starlink
LEOCIRCULAR

About STARLINK-2631

Description loading...

Live Position

Loading 3D Globe...

Upcoming Passes

Altitude History

Altitude vs Time

uPlot chart will show altitude changes over time

Two-Line Element Set

1 48366U 21038P 25231.24739461 .11132663 12347-4 73614-3 0 9998
2 48366 53.0310 142.2815 0007394 253.8945 250.0797 16.40691725237769
Epoch: Aug 19, 2025 • Age: 489 hours

Current Status

Position data unavailable
Launch Date May 4, 2021
Age 4.3 years
Decay Date Aug 19, 2025
Type internet

Technical Details

Classification Payload
Mass 260.00 kg
Dry Mass 248.00 kg
Total Mass 260.00 kg
Length 0.20 m
Diameter 2.80 m
Span 9.00 m
Shape Box + pan
Manufacturer SPXS
Bus Type Starlink
Phase Status Reentered
Owner/State SPXS/US

Large Constellations

Loading constellations...